Location: Houston
(29.7631°N, 95.3631°W)
Time: 16:21:59
(UTC-05:00)

NO-84 - Visible Passes

Search period start: 26 May 2019 00:00
Search period end: 05 June 2019 00:00
Orbit: 334 x 519 km, 55.0° (Epoch: 23 May)

Date Brightness Start Highest point End Pass type
(mag) Time Alt. Az. Time Alt. Az. Time Alt. Az.
26 May ? 04:22:36 19° SE 04:23:02 20° ESE 04:25:50 10° ENE visible
26 May ? 05:56:16 10° WSW 05:59:33 28° NW 06:02:58 10° NNE visible
27 May ? 05:12:40 25° WSW 05:14:32 50° NW 05:18:18 10° NNE visible
28 May ? 04:29:31 83° SSE 04:29:34 84° SE 04:33:25 10° NE visible
29 May ? 03:46:17 26° ENE 03:46:17 26° ENE 03:48:17 10° NE visible
29 May ? 05:19:24 11° WNW 05:21:35 16° NW 05:24:02 10° N visible
30 May ? 04:36:05 25° NW 04:36:27 25° NW 04:39:41 10° NNE visible
31 May ? 03:52:42 30° N 03:52:42 30° N 03:55:02 10° NNE visible
01 Jun ? 03:09:15 16° NE 03:09:15 16° NE 03:10:09 10° NE visible
02 Jun ? 03:58:50 14° NNW 03:58:50 14° NNW 04:00:31 10° N visible
03 Jun ? 03:15:15 15° N 03:15:15 15° N 03:16:14 10° N visible
